Location: Asheville, NC
(35.6000°N, 82.5500°W)
Time: 14:03:38
(UTC-04:00)

AO-7 - Pass Details

Date: 16 March 2018
Orbit: 1440 x 1459 km, 101.7° (Epoch: 19 June)

Event Time Altitude Azimuth Distance (km) Brightness Sun altitude
Rises 06:53:05 0° 3° (N) 4,544 ? -10.3°
Reaches altitude 10° 06:56:33 10° 350° (N) 3,560 ? -9.6°
Maximum altitude 07:02:33 23° 303° (WNW) 2,681 ? -8.3°
Drops below altitude 10° 07:08:33 10° 256° (WSW) 3,546 ? -7.1°
Enters shadow 07:10:05 - 249° (WSW) 3,955 ? -6.8°
